This is the latest recevied weather packets stored in our database for station/object KI2K. If no packets are shown the sender has not sent any weather packets the latest 10 day(s).
| Time | Temp. | Humidity | Pressure | Rain* | Wind** | Luminosity | Snow |
|---|---|---|---|---|---|---|---|
| 1777646860 | 8.33° C | 81% | 1014.5 hPa | 0 mm | - | 233 W/m² | - |
| 1777646556 | 8.33° C | 84% | 1014.3 hPa | 0 mm | - | 288 W/m² | - |
| 1777646252 | 7.78° C | 84% | 1014.3 hPa | 0 mm | - | 140 W/m² | - |
| 1777645949 | 7.78° C | 85% | 1014.1 hPa | 0 mm | - | 252 W/m² | - |
| 1777645641 | 7.78° C | 86% | 1014.1 hPa | 0 mm | - | 146 W/m² | - |
| 1777645337 | 7.78° C | 87% | 1013.7 hPa | 0 mm | - | 184 W/m² | - |
| 1777645033 | 8.33° C | 87% | 1013.8 hPa | 0 mm | - | 140 W/m² | - |
| 1777644730 | 7.78° C | 89% | 1013.7 hPa | 0 mm | - | 253 W/m² | - |
| 1777644427 | 7.78° C | 89% | 1013.7 hPa | 0 mm | - | 133 W/m² | - |
| 1777644123 | 7.78° C | 90% | 1013.4 hPa | 0 mm | - | 144 W/m² | - |
| 1777643820 | 7.78° C | 89% | 1013.9 hPa | 0 mm | - | 80 W/m² | - |
| 1777643517 | 8.33° C | 88% | 1013.5 hPa | 0 mm | - | 57 W/m² | - |
| 1777643213 | 8.89° C | 88% | 1013.4 hPa | 0 mm | - | 40 W/m² | - |
| 1777642910 | 8.33° C | 87% | 1013.4 hPa | 0 mm | - | 158 W/m² | - |
| 1777642607 | 8.89° C | 87% | 1013.4 hPa | 0 mm | - | 121 W/m² | - |
| 1777642304 | 8.89° C | 87% | 1013.4 hPa | 0 mm | - | 227 W/m² | - |
| 1777642001 | 8.33° C | 88% | 1013.1 hPa | 0 mm | - | 244 W/m² | - |
| 1777641696 | 8.33° C | 89% | 1013.1 hPa | 0 mm | - | 119 W/m² | - |
| 1777641392 | 8.33° C | 90% | 1013.1 hPa | 0 mm | - | 156 W/m² | - |
| 1777641087 | 8.33° C | 90% | 1013.1 hPa | 0 mm | - | 110 W/m² | - |
| 1777640783 | 8.33° C | 90% | 1013.2 hPa | 0 mm | - | 141 W/m² | - |
| 1777640481 | 8.33° C | 92% | 1012.8 hPa | 0 mm | - | 115 W/m² | - |
| 1777640178 | 8.33° C | 92% | 1012.8 hPa | 0 mm | - | 105 W/m² | - |
| 1777639874 | 8.33° C | 94% | 1013 hPa | 0 mm | - | 155 W/m² | - |
| 1777639571 | 7.78° C | 95% | 1012.6 hPa | 0 mm | - | 131 W/m² | - |
* Rain latest hour (hover to see other rain measurements)
** Current wind speed in m/s (hover to see current wind gust speed)